FW8060 Weather Reports


time (UTC)temp
F
wind
direction
speed
knots
gust
knots
rain 1hr
in
rain 24hr
in
rain mn
in
humidity
%
barometer
mb
20260506184815 53 309 5.2 10.4 0.00 0.00 0.00 80 1011.6
20260506183812 54 355 4.3 11.3 0.00 0.00 0.00 79 1011.3
20260506182829 54 317 4.3 8.7 0.00 0.00 0.00 79 1011.4
20260506181811 54 346 5.2 10.4 0.00 0.00 0.00 79 1011.2
20260506180808 54 331 5.2 11.3 0.00 0.00 0.00 77 1011.1
20260506175828 55 338 6.1 12.2 0.00 0.00 0.00 77 1011.0
20260506175331 55 325 4.3 8.7 0.00 0.00 0.00 76 1010.8
20260506173849 55 302 4.3 9.6 0.00 0.00 0.00 75 1010.6
20260506172821 55 335 5.2 13.0 0.00 0.00 0.00 75 1010.6
20260506171808 55 351 5.2 11.3 0.00 0.00 0.00 74 1010.5
20260506171508 56 14 6.1 11.3 0.00 0.00 0.00 75 1010.3
20260506171111 56 325 7.0 13.0 0.00 0.00 0.00 72 1010.3
20260506170831 56 313 5.2 11.3 0.00 0.00 0.00 75 1010.4
20260506163809 56 337 6.1 13.9 0.00 0.00 0.00 70 1010.1
20260506163253 57 347 6.1 14.8 0.00 0.00 0.00 70 1010.0
20260506161852 58 28 7.0 14.8 0.00 0.00 0.00 69 1010.0
20260506160814 57 346 4.3 11.3 0.00 0.00 0.00 69 1010.0
20260506155821 57 355 6.1 13.9 0.00 0.00 0.00 71 1010.1
20260506154815 58 302 7.8 14.8 0.00 0.00 0.00 71 1010.0
20260506153815 58 336 7.0 13.0 0.00 0.00 0.00 72 1010.1
20260506152810 57 350 6.1 12.2 0.00 0.00 0.00 70 1010.0
20260506151804 58 22 7.0 14.8 0.00 0.00 0.00 71 1010.1
20260506150806 58 339 7.8 13.9 0.00 0.00 0.00 70 1010.0
20260506145805 58 330 7.0 14.8 0.00 0.00 0.00 69 1010.1
20260506144810 58 330 8.7 15.6 0.00 0.00 0.00 70 1010.1
20260506143806 58 317 7.0 13.0 0.00 0.00 0.00 70 1010.0
20260506142806 58 329 7.0 13.0 0.00 0.00 0.00 69 1010.1
20260506141804 58 332 6.1 11.3 0.00 0.00 0.00 69 1010.0
20260506141027 59 34 6.1 13.9 0.00 0.00 0.00 67 1009.9
20260506140802 59 307 5.2 13.9 0.00 0.00 0.00 67 1009.9
20260506134806 58 306 6.1 13.0 0.00 0.00 0.00 67 1009.9
20260506133757 59 322 5.2 13.0 0.00 0.00 0.00 67 1009.9
20260506132759 58 355 6.1 13.0 0.00 0.00 0.00 69 1010.0
20260506131800 57 38 4.3 10.4 0.00 0.00 0.00 71 1009.9
20260506131215 57 346 5.2 11.3 0.00 0.00 0.00 74 1009.7
20260506130822 57 9 5.2 12.2 0.00 0.00 0.00 72 1009.9
20260506125816 57 5 6.1 13.0 0.00 0.00 0.00 73 1009.8
20260506123755 56 346 5.2 11.3 0.00 0.00 0.00 75 1009.6
20260506123431 56 350 6.1 13.0 0.00 0.00 0.00 76 1009.7
20260506122806 57 294 6.1 11.3 0.00 0.00 0.00 75 1009.7
20260506120802 56 355 5.2 9.6 0.00 0.00 0.00 76 1009.8
20260506115759 57 327 4.3 9.6 0.00 0.00 0.00 76 1009.7
20260506114755 56 319 6.1 13.0 0.00 0.00 0.00 76 1009.8
20260506113757 57 327 5.2 11.3 0.00 0.00 0.00 77 1009.8
20260506113128 56 339 6.1 12.2 0.00 0.00 0.00 76 1009.8
20260506112828 56 328 5.2 12.2 0.00 0.00 0.00 77 1009.7
20260506110800 56 326 5.2 13.9 0.00 0.00 0.00 77 1009.8
20260506105759 55 5 7.0 13.0 0.00 0.00 0.00 78 1009.7
20260506104754 55 318 6.1 10.4 0.00 0.00 0.00 79 1009.8
20260506103757 54 289 5.2 15.6 0.00 0.00 0.00 81 1009.7
20260506102752 53 335 6.1 13.9 0.00 0.00 0.00 82 1009.7
20260506101750 53 318 5.2 12.2 0.00 0.00 0.00 84 1009.8
20260506100751 52 332 4.3 12.2 0.00 0.00 0.00 86 1009.9
20260506095749 51 338 4.3 13.0 0.00 0.00 0.00 88 1009.9
20260506095554 51 338 4.3 13.0 0.00 0.00 0.00 88 1010.0
20260506093751 51 349 3.5 11.3 0.00 0.00 0.00 86 1009.9
20260506092749 51 28 5.2 14.8 0.00 0.00 0.00 83 1009.9
20260506091750 52 347 2.6 7.8 0.00 0.00 0.00 82 1009.7
20260506090752 52 10 3.5 11.3 0.00 0.00 0.00 81 1009.5
20260506085819 52 333 4.3 13.9 0.00 0.00 0.00 80 1009.5
20260506084748 52 44 4.3 13.0 0.00 0.00 0.00 81 1009.4
20260506083749 52 19 4.3 13.0 0.00 0.00 0.00 81 1009.3
20260506082747 52 319 3.5 11.3 0.00 0.00 0.00 81 1009.3
20260506081745 52 34 3.5 10.4 0.00 0.00 0.00 81 1009.2
20260506080747 52 327 5.2 12.2 0.00 0.00 0.00 80 1009.1
20260506072900 52 13 5.2 12.2 0.00 0.00 0.00 82 1008.9
20260506070838 51 53 6.1 13.0 0.00 0.00 0.00 82 1008.9
20260506061749 49 355 4.3 10.4 0.00 0.00 0.00 87 1008.7
20260506061640 49 330 3.5 7.0 0.00 0.00 0.00 87 1008.7
20260506061607 49 333 3.5 7.0 0.00 0.00 0.00 87 1008.6
20260506060920 49 331 3.5 8.7 0.00 0.00 0.00 87 1008.7
20260506050740 48 338 3.5 7.8 0.00 0.00 0.00 87 1008.5
20260506050231 47 345 3.5 7.0 0.00 0.00 0.00 86 1008.7
20260506044747 47 325 3.5 7.0 0.00 0.00 0.00 87 1008.5
20260506042739 47 331 3.5 6.1 0.00 0.00 0.00 86 1008.8
20260506041746 48 336 3.5 5.2 0.00 0.00 0.00 85 1008.8
20260506040743 48 350 2.6 7.0 0.00 0.00 0.00 85 1008.8
20260506035739 48 329 0.9 4.3 0.00 0.00 0.00 85 1008.8
20260506034734 48 355 2.6 7.8 0.00 0.00 0.00 86 1008.9
20260506033734 48 9 1.7 4.3 0.00 0.00 0.00 86 1008.9
20260506032852 47 5 0.9 4.3 0.00 0.00 0.00 86 1008.9
20260506032742 48 9 1.7 7.0 0.00 0.00 0.00 86 1008.9
20260506030734 47 13 1.7 7.8 0.00 0.00 0.00 86 1009.0
20260506025731 48 5 1.7 7.0 0.00 0.00 0.00 86 1009.0
20260506024730 48 22 1.7 7.0 0.00 0.00 0.00 86 1008.9
20260506023731 48 5 1.7 5.2 0.00 0.00 0.00 86 1008.9
20260506022740 48 355 1.7 8.7 0.00 0.00 0.00 86 1009.0
20260506022630 48 9 2.6 7.8 0.00 0.00 0.00 85 1009.2
20260506022558 48 5 2.6 8.7 0.00 0.00 0.00 85 1009.2
20260506022208 48 17 1.7 7.8 0.00 0.00 0.00 86 1009.2
20260506022100 48 9 1.7 4.3 0.00 0.00 0.00 85 1009.2
20260506022010 48 346 1.7 4.3 0.00 0.00 0.00 84 1009.3
20260506021732 48 5 1.7 8.7 0.00 0.00 0.00 86 1009.0
20260506020809 48 26 1.7 6.1 0.00 0.00 0.00 86 1009.0
20260506015746 48 331 2.6 7.0 0.00 0.00 0.00 86 1009.1
20260506014047 48 343 1.7 5.2 0.00 0.00 0.00 86 1009.1
20260506010753 48 33 2.6 7.8 0.00 0.00 0.00 85 1009.2
20260506003741 49 355 1.7 7.0 0.00 0.00 0.00 85 1009.3
20260506002734 49 39 1.7 5.2 0.00 0.00 0.00 85 1009.3
20260506001727 49 12 1.7 6.1 0.00 0.00 0.00 86 1009.4
20260506000729 49 0 2.6 7.0 0.00 0.00 0.00 86 1009.6
20260505235729 49 47 2.6 7.8 0.00 0.00 0.00 86 1009.5
20260505234733 49 9 2.6 7.0 0.00 0.00 0.00 87 1009.6
20260505233730 49 355 1.7 7.0 0.00 0.00 0.00 87 1009.7
20260505232727 49 13 2.6 7.8 0.00 0.00 0.00 87 1009.6
20260505231727 49 21 2.6 7.8 0.00 0.00 0.00 88 1009.7
20260505230726 49 0 1.7 7.8 0.00 0.00 0.00 88 1009.7
20260505230716 49 344 1.7 7.0 0.00 0.00 0.00 88 1009.7
20260505224733 49 331 1.7 5.2 0.00 0.00 0.00 87 1009.7
20260505223732 49 350 1.7 7.8 0.00 0.00 0.00 87 1009.7
20260505222733 50 355 1.7 5.2 0.00 0.00 0.00 87 1009.7
20260505221743 50 12 0.9 5.2 0.00 0.00 0.00 86 1009.8
20260505221726 50 355 1.7 5.2 0.00 0.00 0.00 87 1009.8
20260505215721 50 343 0.9 4.3 0.00 0.00 0.00 86 1009.7
20260505214722 50 342 1.7 5.2 0.00 0.00 0.00 85 1009.7
20260505213722 50 46 1.7 4.3 0.00 0.00 0.00 85 1009.7
20260505212726 51 0 1.7 5.2 0.00 0.00 0.00 85 1009.6
20260505211727 51 9 1.7 8.7 0.00 0.00 0.00 85 1009.6
20260505210728 51 319 1.7 7.0 0.00 0.00 0.00 85 1009.6
20260505205721 51 5 1.7 5.2 0.00 0.00 0.00 85 1009.6
20260505205113 51 336 1.7 7.0 0.00 0.00 0.00 85 1009.6
20260505204751 51 5 1.7 7.0 0.00 0.00 0.00 85 1009.6
20260505202719 51 22 1.7 9.6 0.00 0.00 0.00 84 1009.6
20260505201732 51 18 2.6 9.6 0.00 0.00 0.00 84 1009.5
20260505200721 51 28 3.5 10.4 0.00 0.00 0.00 84 1009.5
20260505195927 52 334 2.6 7.8 0.00 0.00 0.00 83 1009.3
20260505195730 52 329 4.3 10.4 0.00 0.00 0.00 83 1009.4
20260505193926 52 5 2.6 10.4 0.00 0.00 0.00 82 1009.3
20260505193724 52 329 2.6 10.4 0.00 0.00 0.00 82 1009.3
20260505191714 53 49 2.6 10.4 0.00 0.00 0.00 81 1009.2
20260505190751 53 18 3.5 10.4 0.00 0.00 0.00 81 1009.3
20260505185712 53 317 3.5 11.3 0.00 0.00 0.00 80 1009.2